Location: Le Domaine
(47.0333°N, 76.5361°W)
Time: 18:57:55
(UTC-05:00)

Transit 2A Rocket - Pass Details

Date: 21 November 2019
Orbit: 594 x 909 km, 66.7° (Epoch: 09 December)

Event Time Altitude Azimuth Distance (km) Brightness Sun altitude
Exits shadow 06:32:30 - 312° (NW) 2,101 6.7 -7.8°
Reaches altitude 10° 06:32:54 10° 310° (NW) 1,957 6.5 -7.8°
Maximum altitude 06:36:53 35° 245° (WSW) 1,007 5.3 -7.1°
Drops below altitude 10° 06:41:02 10° 179° (S) 2,047 7.6 -6.5°
Sets 06:43:32 0° 171° (S) 3,001 8.6 -6.1°
